Find Starlink 32751

NORAD ID: 62753 Int'l Des: 2025-014 Owner: SPXS Country: US Constellation: starlink operational
LEOCIRCULAR

Live Position

Loading 3D Globe...

About Starlink 32751

Description loading...

Upcoming Passes

Passes for default location (London). Set your location on the main map for personalized predictions.

Altitude History

Loading altitude history...

Two-Line Element Set

1 62753U 25014U 26109.75181516 .00010052 00000-0 37414-3 0 9997
2 62753 43.0007 282.8092 0001462 263.2840 96.7845 15.27594827 69530
Epoch: Apr 19, 2026 • Age: 27 hours

Current Status

Altitude 482.5 km
Velocity 7.63 km/s
Sub-Earth Point 16.07°N, 91.51°W
Launch Date Jan 21, 2025
Age 1.2 years
Type internet

Technical Details

Classification Payload
Mass 730.00 kg
Dry Mass 700.00 kg
Total Mass 730.00 kg
Length 0.30 m
Diameter 4.10 m
Span 29.00 m
Shape Box + pan
Manufacturer SPXS
Bus Type Starlink V2M
Phase Status In Orbit
Owner/State SPXS/US

Most Searched